Powrót do katalogu

CZ-6A DEB

AktywnySSO
NORAD 54458·DEBRIS·🇨🇳 China

Wystrzelony Nov 11, 2022 z Taiyuan Satellite Launch Center

Loading…

Następne Przeloty (najbliższe 24 godziny)

TLE

ŚwieżeSource: Space-Track

Epoka: Sep 14, 2026, 04:37 UTC

1 54458U 22151GJ  26257.19303055  .00002061  00000-0  71363-3 0  9997
2 54458  99.0247 331.9043 0141199 277.5887  80.9276 14.31417616199400

Śledź CZ-6A DEB w czasie rzeczywistym z AllMySat

Download on the App Store